Find Local Weather

World > North America > United States > Virginia

Harrisonburg, Virginia Regional Weather

Lat: 38.44N, Lon: 78.87W
Wx Zone: VAZ026
Feedback
Expires:201806180300;;704384
ASUS41 KLWX 180211
RWRLWX

REGIONAL WEATHER ROUNDUP
NATIONAL WEATHER SERVICE BALTIMORE MD/WASHINGTON DC
1000 PM EDT SUN JUN 17 2018

Note: "FAIR" indicates few or no clouds below 12,000 feet
with no significant weather and/or obstructions to visibility.
 TC=TEMPERATURE CELSIUS

 * =Non NWS site. Station does not report precipitation (e.g. rain,
    snow, etc.), thunder, or fog.


VAZ025>031-180300-
SHENANDOAH VALLEY
  
CITY           SKY/WX    TMP DP  RH WIND       PRES   REMARKS
WINCHESTER*    FAIR      70  68  94 CALM      30.10R                  
FRONT ROYAL*   FAIR      73  72  94 S3        30.08R                  
LURAY*         FAIR      73  70  88 CALM      30.10R                  
NEW MARKET*    FAIR      72  71  96 CALM      30.09R                  
STAUNTON*      FAIR      74  72  93 CALM      30.13S                  
WAYNESBORO*    CLOUDY    76  71  83 CALM      30.14R                  

$$


SKY/WX - Weather  TMP - Temperature  DP - Dewpoint  RH - Relative Humidity
WIND - Wind Direction/Speed PRES - Barometric Pressure